Terminal Aerodrome Forecast
Issued by NWS

Home | Current Version | Previous Version | Text Only | Print | Product List | Glossary On
Versions: 1 2 3 4 5 6 7 8 9 10 11 12 13 14 15 16 17 18 19 20 21 22 23 24 25 26
000
FTUS44 KOUN 152333
TAFLAW
TAF
KLAW 152333Z 1600/1624 13010KT P6SM BKN100
     FM160800 02006KT P6SM BKN040
      TEMPO 1610/1614 OVC015
     FM161600 08008KT P6SM BKN030=

USA.gov is the U.S. government's official web portal to all federal, state and local government web resources and services.